Location: Camaret
(48.2753°N, 4.5961°W)
Time: 01:30:15
(UTC+00:00)

Cosmos 2360 - Pass Details

Date: 29 October 2020
Orbit: 848 x 855 km, 70.8° (Epoch: 26 November)

Event Time Altitude Azimuth Distance (km) Brightness Sun altitude
Rises 19:35:41 0° 215° (SW) 3,413 7.7 -25.8°
Reaches altitude 10° 19:38:09 10° 218° (SW) 2,481 7.0 -26.2°
Maximum altitude 19:43:49 67° 301° (WNW) 924 4.5 -27.1°
Enters shadow 19:46:39 31° 15° (NNE) 1,477 5.4 -27.6°
